[[{"header":{"parameterUnit":"m.s-1","parameterCategory":1,"la1":30.2991,"la2":30.254,"lo1":-89.0895,"lo2":-89.0444,"dy":0.0017,"dx":0.0017,"nx":28,"ny":28,"refTime":"2023-10-19T09:00:00:Z","depth":0,"parameterNumber":2,"parameterNumberName":"U-component_of_WINDS"},"data":[0,0,0,0,0,0,0,0,0,0,0,0,0,0,0,0,0,0,0,0,0,0,0,0,0,0,0,0,0,0,0,0,0,0,0,0,0,0,0,0,0,0,0,0,0,0,0,0,0,0,0,0,0,0,0,0,0,0,4.5496,4.5496,0,4.55,4.55,4.55,4.5479,4.5478,4.5478,4.5477,4.5481,4.5482,4.5483,0,0,0,0,0,0,0,0,0,0,0,0,0,4.5476,4.5476,4.5496,4.5496,4.5496,4.55,4.55,4.55,4.5479,4.5478,4.5478,4.5477,4.5481,4.5482,4.5483,0,0,0,0,0,0,0,0,0,0,0,0,0,4.5483,4.5477,4.5496,4.5486,4.5485,4.55,4.55,4.55,4.5479,4.5478,4.5477,4.5477,4.5481,4.5482,4.5483,4.5507,0,0,4.5486,4.5486,0,0,0,0,0,0,0,0,4.5482,4.5483,4.5488,4.5487,4.5486,4.5488,4.5494,4.5502,4.5479,4.5482,4.5477,4.5476,4.5484,4.5485,4.5488,4.5507,4.5507,4.5486,4.5487,4.5487,4.5487,0,0,0,0,0,0,0,4.5482,4.5483,4.5497,4.5488,4.5487,4.5483,4.5483,4.5496,4.5488,4.5481,4.548,4.5481,4.5484,4.5487,4.5488,4.5507,4.5486,4.5487,4.5487,4.5488,4.5554,4.5555,0,0,0,0,0,0,4.5482,4.5483,4.5497,4.5497,4.5482,4.5484,4.5484,4.5488,4.5488,4.5487,4.5481,4.548,4.5485,4.5486,4.5488,4.552,4.5487,4.5488,4.5488,4.5553,4.5554,4.5555,0,0,0,0,0,0,4.5482,4.5484,4.5497,4.549,4.5491,4.5486,4.549,4.5489,4.5492,4.5488,4.5486,4.5485,4.5485,4.5486,4.5504,4.552,4.5488,4.5489,4.5551,4.5553,4.5555,4.5582,0,0,0,0,0,0,4.5481,4.5484,4.5491,4.549,4.5492,4.5511,4.5491,4.5489,4.5493,4.5491,4.5491,4.549,4.5484,4.5502,4.5505,4.552,4.549,4.555,4.5552,4.5554,4.558,4.5585,4.5589,0,0,0,0,0,4.5481,4.5497,4.5491,4.5493,4.5501,4.5512,4.5513,4.5506,4.5495,4.5503,4.5502,4.549,4.5518,4.5504,4.5507,4.5523,4.5549,4.5551,4.5554,4.5578,4.5584,4.5589,0,0,0,0,0,0,4.5498,4.5496,4.549,4.5506,4.551,4.5509,4.5519,4.5511,4.5517,4.5515,4.5506,4.5506,4.5527,4.5526,4.5512,4.555,4.5532,4.5535,4.5549,4.5554,4.5559,4.5559,4.5491,0,0,0,0,0,4.5504,4.5513,4.5511,4.5526,4.5528,4.5524,4.5528,4.5523,4.5526,4.5527,4.5527,4.5531,4.5541,4.5548,4.5556,4.558,4.5583,4.5593,4.5598,4.5601,4.5605,4.5623,4.563,4.5564,4.5564,4.5564,0,0,4.5515,4.5516,4.5521,4.553,4.5531,4.5543,4.5525,4.5536,4.5545,4.5529,4.5546,4.5547,4.5552,4.5574,4.5584,4.5575,4.5624,4.5605,4.5608,4.5609,4.5627,4.5633,4.5639,4.5566,4.5565,4.5565,0,0,4.5543,4.5543,4.5558,4.5562,4.5566,4.5564,4.5568,4.557,4.557,4.5588,4.5578,4.559,4.5606,4.5611,4.5616,4.5655,4.5646,4.5658,4.5681,4.5699,4.5705,4.5709,4.5727,4.5733,4.5661,4.5661,4.5661,0,4.5557,4.5573,4.5566,4.558,4.5586,4.5575,4.5592,4.5596,4.5603,4.5608,4.5598,4.5623,4.5624,4.5651,4.5661,4.5664,4.5672,4.5657,4.5704,4.5709,4.5713,4.573,4.5736,4.5662,4.5662,4.5662,4.5662,0,4.5592,4.5604,4.5615,4.5625,4.5633,4.5648,4.5646,4.5655,4.5651,4.5652,4.5673,4.5676,4.5688,4.5694,4.5688,4.5722,4.5717,4.5706,4.5687,4.5721,4.5737,4.5743,4.5665,4.5664,4.5664,4.5663,0,0,4.5625,4.5636,4.5641,4.5648,4.5656,4.5666,4.5683,4.5696,4.5706,4.5713,4.573,4.5748,4.574,4.5746,4.5742,4.5758,4.5794,4.5746,4.5746,4.5757,4.5837,4.5847,4.5854,4.5789,4.579,4.5791,4.5838,0,4.5655,4.5684,4.5683,4.5711,4.5725,4.5718,4.5735,4.5743,4.5745,4.5759,4.5762,4.5777,4.5762,4.5767,4.5783,4.5786,4.5811,4.5783,4.5807,4.5808,4.5808,4.5861,4.587,4.5914,4.5844,4.5845,4.5845,0,4.5691,4.5703,4.5734,4.5746,4.5752,4.5766,4.5782,4.5794,4.5806,4.5807,4.5818,4.5813,4.5835,4.5817,4.5849,4.5831,4.5842,4.5846,4.5847,4.585,4.5829,4.5868,4.5927,4.5935,4.5854,4.5854,4.5853,0,4.5717,4.574,4.5763,4.5769,4.5783,4.5794,4.5801,4.5811,4.5822,4.5836,4.5844,4.586,4.5869,4.5884,4.5886,4.5871,4.592,4.59,4.5925,4.5925,4.5934,4.5934,4.5998,4.5939,4.5938,4.5938,4.5938,0,4.575,4.577,4.5776,4.579,4.5815,4.5815,4.5839,4.5845,4.5856,4.5874,4.5869,4.5886,4.5887,4.5905,4.5907,4.5937,4.594,4.5944,4.5945,4.5945,4.5946,4.5953,4.595,4.594,4.594,4.5939,4.5939,0,4.5781,4.5785,4.5811,4.5824,4.5829,4.5846,4.5859,4.5875,4.588,4.5903,4.5908,4.5916,4.5938,4.5942,4.5968,4.597,4.6006,4.6002,4.6003,4.6003,4.6028,4.6027,4.61,4.6112,4.6042,4.6043,4.6044,0,4.5801,4.5818,4.5835,4.5847,4.5855,4.5874,4.5887,4.589,4.5903,4.5922,4.5937,4.5959,4.5977,4.6015,4.6024,4.6045,4.6044,4.6068,4.6046,4.6049,4.6048,4.6048,4.6052,4.6072,4.6073,4.6074,4.6074,0,4.584,4.5843,4.5861,4.5882,4.5898,4.5913,4.5929,4.594,4.5946,4.5962,4.5986,4.6001,4.603,4.6054,4.6078,4.6086,4.6083,4.6082,4.6089,4.609,4.6091,4.6095,4.6016,4.6079,4.6079,4.6078,4.6078,4.6078,4.5868,4.5884,4.5901,4.5923,4.5937,4.5953,4.5971,4.598,4.6001,4.6026,4.6027,4.6055,4.6074,4.6105,4.6116,4.614,4.6132,4.6141,4.6144,4.6147,4.6152,4.6087,4.6144,4.6144,4.6143,4.6143,4.6143,0,4.5908,4.5921,4.5941,4.5965,4.5985,4.5982,4.6001,4.6017,4.6042,4.606,4.608,4.6112,4.6138,4.6151,4.6178,4.6195,4.6195,4.6202,4.6201,4.6205,4.6155,4.6147,4.6202,4.6202,4.6202,4.6202,4.6202,4.6202,4.5931,4.5961,4.5968,4.6007,4.602,4.6048,4.606,4.6077,4.6092,4.6129,4.6151,4.616,4.6179,4.6208,4.6233,4.6237,4.6248,4.6257,4.626,4.6213,4.6207,4.6202,4.6195,4.6259,4.6259,4.6309,4.6309,4.631]},{"header":{"parameterUnit":"m.s-1","parameterCategory":1,"la1":30.2991,"la2":30.254,"lo1":-89.0895,"lo2":-89.0444,"dy":0.0017,"dx":0.0017,"nx":28,"ny":28,"refTime":"2023-10-19T09:00:00:Z","depth":0,"parameterNumber":3,"parameterNumberName":"V-component_of_WINDS"},"data":[0,0,0,0,0,0,0,0,0,0,0,0,0,0,0,0,0,0,0,0,0,0,0,0,0,0,0,0,0,0,0,0,0,0,0,0,0,0,0,0,0,0,0,0,0,0,0,0,0,0,0,0,0,0,0,0,0,0,0.5398,0.54,0,0.5538,0.554,0.5542,0.5531,0.5529,0.5527,0.5525,0.5673,0.5679,0.5685,0,0,0,0,0,0,0,0,0,0,0,0,0,0.5124,0.5129,0.5398,0.54,0.5402,0.5538,0.554,0.5542,0.5531,0.5529,0.5526,0.5524,0.5671,0.5678,0.5685,0,0,0,0,0,0,0,0,0,0,0,0,0,0.5252,0.5131,0.5398,0.5413,0.5415,0.5538,0.554,0.5543,0.5532,0.5529,0.5525,0.5522,0.5669,0.5678,0.5686,0.5805,0,0,0.5714,0.5717,0,0,0,0,0,0,0,0,0.5245,0.5262,0.5409,0.5412,0.5415,0.5514,0.5498,0.5631,0.5533,0.5488,0.5525,0.5521,0.5623,0.5636,0.5669,0.5812,0.5818,0.5714,0.572,0.5724,0.5726,0,0,0,0,0,0,0,0.5236,0.5256,0.5454,0.5411,0.5415,0.5413,0.5428,0.5523,0.5572,0.5491,0.5491,0.5507,0.5624,0.566,0.5672,0.5821,0.5714,0.5722,0.5728,0.5731,0.6065,0.6069,0,0,0,0,0,0,0.5223,0.5249,0.5449,0.5458,0.532,0.5421,0.5437,0.5485,0.5571,0.558,0.551,0.5506,0.5647,0.5662,0.5678,0.582,0.5724,0.5732,0.5737,0.6062,0.6066,0.607,0,0,0,0,0,0,0.5217,0.5241,0.5444,0.5353,0.5379,0.5429,0.5483,0.549,0.5526,0.5585,0.5594,0.5538,0.5645,0.5665,0.5772,0.5825,0.5736,0.5744,0.6058,0.6063,0.6068,0.6107,0,0,0,0,0,0,0.5209,0.5239,0.5284,0.5354,0.5384,0.5535,0.5486,0.5495,0.5541,0.5537,0.5613,0.5623,0.5644,0.5759,0.5781,0.5836,0.5751,0.6053,0.606,0.6066,0.6102,0.6113,0.6123,0,0,0,0,0,0.52,0.5291,0.5286,0.5311,0.5441,0.5538,0.5555,0.5577,0.5545,0.5591,0.5628,0.562,0.5816,0.577,0.5795,0.5853,0.605,0.6058,0.6066,0.6097,0.6111,0.6123,0,0,0,0,0,0,0.5228,0.5301,0.5296,0.5413,0.5469,0.5536,0.5595,0.5592,0.566,0.5654,0.5679,0.5696,0.5804,0.584,0.5787,0.5971,0.5929,0.5942,0.5944,0.5958,0.5969,0.5958,0.5758,0,0,0,0,0,0.5248,0.532,0.538,0.5477,0.5505,0.5545,0.5589,0.56,0.566,0.5684,0.573,0.579,0.5864,0.5913,0.5986,0.6107,0.6122,0.6159,0.617,0.6178,0.6189,0.6254,0.627,0.6096,0.6096,0.6096,0,0,0.529,0.5338,0.5382,0.5484,0.5529,0.5603,0.5566,0.5647,0.5702,0.5698,0.58,0.5836,0.5904,0.6018,0.6071,0.6051,0.6241,0.6188,0.6195,0.6201,0.6264,0.628,0.6295,0.6101,0.6101,0.61,0,0,0.5403,0.5448,0.5532,0.5577,0.5645,0.567,0.5691,0.5758,0.578,0.5884,0.5881,0.5948,0.6077,0.6125,0.6167,0.6296,0.629,0.6319,0.6376,0.6439,0.6452,0.6464,0.6509,0.6525,0.633,0.633,0.633,0,0.5447,0.5558,0.5577,0.5657,0.5702,0.5698,0.5784,0.5828,0.5916,0.5947,0.5924,0.6083,0.613,0.6254,0.6285,0.6319,0.6342,0.631,0.6448,0.6461,0.6473,0.6516,0.6532,0.6333,0.6333,0.6332,0.6332,0,0.5607,0.5684,0.5745,0.5827,0.5879,0.5962,0.5994,0.6044,0.605,0.6078,0.6183,0.6238,0.632,0.635,0.6359,0.6475,0.6461,0.6443,0.6401,0.6492,0.6532,0.6549,0.6337,0.6336,0.6335,0.6334,0,0,0.5744,0.5834,0.5856,0.5892,0.5966,0.6026,0.6109,0.6187,0.6229,0.629,0.6359,0.6467,0.645,0.6497,0.651,0.6565,0.6662,0.6541,0.6542,0.656,0.6792,0.6804,0.6823,0.6659,0.6662,0.6665,0.6785,0,0.5864,0.6008,0.6027,0.6155,0.6226,0.6223,0.6294,0.6348,0.6376,0.644,0.6472,0.6547,0.652,0.6548,0.6602,0.6639,0.6709,0.663,0.6724,0.6727,0.6705,0.6844,0.6858,0.6969,0.6802,0.6804,0.6806,0,0.6024,0.6086,0.6221,0.6282,0.6312,0.6376,0.6448,0.651,0.657,0.6587,0.6637,0.6643,0.6729,0.6683,0.6801,0.6747,0.6787,0.681,0.6815,0.6824,0.6771,0.6855,0.7006,0.7021,0.6832,0.683,0.6828,0,0.6107,0.6225,0.6321,0.6352,0.6427,0.6471,0.6505,0.6562,0.6607,0.667,0.6699,0.6773,0.6813,0.687,0.6895,0.6859,0.7011,0.6968,0.7026,0.7026,0.7058,0.7056,0.7215,0.7086,0.7085,0.7085,0.7085,0,0.6239,0.6321,0.6359,0.6417,0.6509,0.653,0.662,0.6652,0.6702,0.6767,0.677,0.6831,0.6861,0.6927,0.6948,0.7041,0.706,0.7075,0.708,0.7074,0.7072,0.71,0.7092,0.7089,0.7088,0.7088,0.7087,0,0.6348,0.6377,0.648,0.6541,0.6558,0.6623,0.6675,0.6732,0.6759,0.6841,0.6862,0.6904,0.6981,0.7012,0.7108,0.7121,0.7228,0.7228,0.7207,0.7208,0.7265,0.7258,0.7447,0.7472,0.7327,0.7328,0.733,0,0.6429,0.6492,0.6558,0.6601,0.6635,0.6704,0.6749,0.6772,0.6819,0.689,0.6938,0.7015,0.7077,0.7201,0.7241,0.7313,0.7313,0.7374,0.7324,0.7316,0.7312,0.7308,0.7313,0.7383,0.7385,0.7386,0.7387,0,0.657,0.658,0.6644,0.6713,0.6765,0.6821,0.6876,0.6911,0.6942,0.6994,0.7072,0.712,0.7216,0.7291,0.7365,0.7401,0.7399,0.7402,0.7419,0.7414,0.7399,0.7406,0.7231,0.7398,0.7397,0.7396,0.7395,0.7395,0.6666,0.6721,0.6775,0.6846,0.6889,0.6939,0.6994,0.7027,0.7091,0.7169,0.7179,0.7262,0.7319,0.7418,0.7456,0.7522,0.7506,0.7531,0.7538,0.7543,0.7546,0.7389,0.7536,0.7536,0.7535,0.7535,0.7535,0,0.6805,0.684,0.6904,0.6979,0.7034,0.7026,0.7085,0.7132,0.7204,0.7257,0.7317,0.7405,0.7478,0.7523,0.7596,0.764,0.7641,0.7658,0.7655,0.7663,0.7557,0.7534,0.7656,0.7656,0.7656,0.7656,0.7656,0.7656,0.6884,0.6975,0.6992,0.7104,0.7138,0.7218,0.7252,0.7298,0.7339,0.7437,0.7497,0.7525,0.7574,0.7651,0.7717,0.7728,0.7754,0.7773,0.7783,0.7683,0.767,0.7658,0.7637,0.7779,0.7779,0.7883,0.7884,0.7884]}]]